This is the latest recevied weather packets stored in our database for station/object KK4WXG. If no packets are shown the sender has not sent any weather packets the latest 10 day(s).
| Time | Temp. | Humidity | Pressure | Rain* | Wind** | Luminosity | Snow |
|---|---|---|---|---|---|---|---|
| 1777759729 | 13.33° C | 42% | 1011.9 hPa | 0 mm | - | 223 W/m² | - |
| 1777759424 | 13.33° C | 40% | 1011.9 hPa | 0 mm | - | 185 W/m² | - |
| 1777759121 | 13.33° C | 44% | 1011.9 hPa | 0 mm | - | 167 W/m² | - |
| 1777758819 | 13.33° C | 44% | 1011.9 hPa | 0 mm | - | 145 W/m² | - |
| 1777758515 | 13.33° C | 44% | 1011.8 hPa | 0 mm | - | 175 W/m² | - |
| 1777758212 | 13.89° C | 40% | 1011.7 hPa | 0 mm | - | 192 W/m² | - |
| 1777757909 | 14.44° C | 41% | 1012.1 hPa | 0 mm | - | 270 W/m² | - |
| 1777757606 | 14.44° C | 41% | 1011.7 hPa | 0 mm | - | 515 W/m² | - |
| 1777757305 | 13.33° C | 45% | 1011.7 hPa | 0 mm | - | 395 W/m² | - |
| 1777757003 | 13.33° C | 42% | 1011.9 hPa | 0 mm | - | 199 W/m² | - |
| 1777756700 | 13.33° C | 42% | 1011.9 hPa | 0 mm | - | 197 W/m² | - |
| 1777756401 | 13.89° C | 41% | 1011.9 hPa | 0 mm | - | 256 W/m² | - |
| 1777756099 | 13.89° C | 42% | 1011.8 hPa | 0 mm | - | 403 W/m² | - |
| 1777755796 | 13.89° C | 44% | 1011.8 hPa | 0 mm | - | 282 W/m² | - |
| 1777755493 | 14.44° C | 41% | 1011.6 hPa | 0 mm | - | 282 W/m² | - |
| 1777755188 | 13.89° C | 46% | 1011.8 hPa | 0 mm | - | 316 W/m² | - |
| 1777754886 | 13.89° C | 42% | 1011.6 hPa | 0 mm | - | 267 W/m² | - |
| 1777754583 | 15° C | 40% | 1011.6 hPa | 0 mm | - | 299 W/m² | - |
| 1777754280 | 15° C | 42% | 1011.6 hPa | 0 mm | - | 705 W/m² | - |
| 1777753978 | 14.44° C | 43% | 1011.6 hPa | 0 mm | - | 808 W/m² | - |
| 1777753678 | 13.33° C | 42% | 1011.8 hPa | 0 mm | - | 350 W/m² | - |
| 1777753376 | 13.89° C | 44% | 1011.5 hPa | 0 mm | - | 274 W/m² | - |
| 1777753074 | 13.89° C | 44% | 1011.6 hPa | 0 mm | - | 271 W/m² | - |
| 1777752775 | 13.89° C | 42% | 1011.8 hPa | 0 mm | - | 306 W/m² | - |
| 1777752471 | 14.44° C | 43% | 1011.7 hPa | 0 mm | - | 956 W/m² | - |
* Rain latest hour (hover to see other rain measurements)
** Current wind speed in m/s (hover to see current wind gust speed)